www.pogodaiklimat.ru

Погода и климат >> Архив погоды >> Россия >> Чукотка >> Билибино


ПОГОДА в Билибино

  • Прогноз погоды в Билибино
  • Монитор погоды в Билибино
  • Климат города

АРХИВ ПОГОДЫ в Билибино

Время (UTC), дата Ветер
(напр.,м/с)
 
Видим.   Явления Облачность Т
(С)
Тd
(С)
f
(%)
Тe
(С)
Тes
(С)
Комфортность P
(гПа)
Po
(гПа)
Тmin
(С)
Tmax
(С)
R
(мм)
R24
(мм)
S
(см)
00 16.05 ЮВ 2
{4}
50 км 1/0
[Ci ing]
+6.9 -7.3 36 +6 +15 опасность
простуды
1013.8 979.8
03 16.05 Ю 1
{5}
50 км 6/0
[Ac cast Cs]
+8.3 -7.4 32 +8 +17 1013.4 979.7
06 16.05 С 2
{5}
50 км 8/0
[Ac trans Cs]
+5.5 -4.8 47 +4 +6 1013.7 979.6
09 16.05 СВ 2
{5}
50 км 8/3 1000 м
[Sc Ac trans]
+2.8 -4.1 60 0 0 1014.6 980.1 +8.7
12 16.05 СВ 4
{7}
50 км 3/0
[Ac trans]
+0.4 -4.7 69 -5 -5 1014.9 980.2
15 16.05 СВ 4
{8}
50 км ясно -2.1 -6.7 71 -8 -8 1015.2 980.1
18 16.05 СВ 5
{8}
50 км ясно -2.2 -7.3 68 -8 -8 1014.9 979.8
21 16.05 С 6
{9}
50 км ясно +1.5 -5.9 58 -4 -2 1013.6 979.1 -3.1 27
00 17.05 С 5
{9}
50 км 3/0
[Ci sp]
+5.2 -5.3 47 +1 +6 1012.4 978.4
03 17.05 С 3
{7}
50 км 8/0
[Ac trans Ci fib]
+6.9 -5.0 42 +5 +10 1011.9 978.0
06 17.05 СВ 2
{5}
50 км 9/0
[Ac lent Ci fib]
+7.3 -4.7 42 +6 +8 1011.8 978.0
09 17.05 СВ 1
{3}
50 км 9/0
[Ci sp]
+4.4 -3.4 57 +4 +4 1013.0 978.9 +8.0
12 17.05 С 1
{3}
50 км 9/0
[Ac lent Ci sp]
-1.1 -3.4 84 -3 -3 1014.3 979.4
15 17.05 штиль 0
{2}
50 км 3/0
[Ac und]
-4.3 -5.4 92 -5 -5 1015.0 979.6
18 17.05 СВ 1
{2}
50 км 6/0
[Ac lent Ci fib]
+0.5 -4.6 69 -1 -0 1014.4 979.7
21 17.05 СВ 2
{4}
50 км 8/0 600 м
[Cu hum Ci fib]
+4.3 -3.5 57 +2 +7 1013.7 979.5 -4.7 19
00 18.05 В 1
{4}
50 км 1/0
[Ci fib]
+7.3 -3.6 46 +7 +18 опасность
простуды
1013.4 979.5
03 18.05 Ю 2
{4}
50 км 1/0
[Ci fib]
+8.7 -3.3 43 +8 +16 1012.9 979.3
06 18.05 ЮВ 2
{4}
50 км 8/0
[Cs]
+8.7 -3.0 44 +8 +11 1013.3 979.6
09 18.05 СВ 1
{3}
50 км 3/0
[Ci fib]
+5.6 -2.1 58 +5 +5 1014.6 980.5 +9.6
12 18.05 штиль 0
{2}
50 км ясно -2.4 -3.6 91 -4 -4 1016.6 981.5
15 18.05 штиль 0
{1}
50 км ясно -4.3 -5.2 93 -5 -5 1017.4 982.0
18 18.05 СВ 1
{2}
50 км 3/0
[Ci fib]
-0.2 -4.2 74 -2 -1 1017.3 982.4
21 18.05 СВ 1
{2}
50 км 3/0
[Ci fib]
+4.3 -3.2 58 +3 +10 1016.5 982.3 -4.8 16
00 19.05 С 1
{2}
50 км 3/0
[Ci ing]
+8.6 -3.6 42 +9 +19 опасность
простуды
1015.6 981.9
03 19.05 Ю 2
{3}
50 км ясно +10.9 -3.0 38 +10 +19 1014.7 981.2
06 19.05 СВ 2
{3}
50 км ясно +9.7 -2.2 43 +9 +12 1014.6 981.0
09 19.05 СВ 3
{4}
50 км ясно +5.8 -1.8 58 +3 +3 1015.1 981.0 +12.2
12 19.05 штиль 0
{4}
50 км ясно -0.8 -2.7 87 -2 -2 1016.5 981.6
15 19.05 СВ 1
{4}
50 км ясно -1.0 -3.6 82 -3 -3 1016.5 981.5
18 19.05 СВ 3
{6}
50 км ясно +1.5 -3.6 69 -3 -1 1016.1 981.5
21 19.05 СВ 4
{7}
50 км ясно +4.8 -2.9 57 +1 +5 1015.3 981.1 -1.9 8
00 20.05 СВ 2
{6}
50 км ясно +8.6 -2.6 45 +7 +17 опасность
простуды
1014.0 980.3
03 20.05 СВ 3
{4}
50 км ясно +10.5 -2.2 41 +9 +16 1012.8 979.4
06 20.05 СВ 3
{4}
50 км ясно +9.7 -2.2 43 +8 +11 1012.1 978.6
09 20.05 С 5
{8}
50 км ясно +5.9 -2.0 57 +2 +2 1011.9 977.9 +10.9
12 20.05 СВ 4
{8}
50 км ясно +2.9 -2.2 69 -2 -2 1011.8 977.4
15 20.05 СВ 2
{8}
50 км 6/0
[Ci fib]
+1.3 -3.6 70 -2 -2 1010.5 976.1
18 20.05 СВ 3
{6}
50 км 8/0
[Ci fib]
+2.3 -3.7 65 -1 -0 1009.6 975.3
21 20.05 С 2
{6}
50 км 8/0
[Ci fib]
+5.2 -3.4 54 +3 +8 1008.5 974.6 +0.6 <0.5
00 21.05 ЮЗ 2
{5}
50 км 9/0
[Ci fib]
+8.6 -3.0 44 +7 +16 опасность
простуды
1007.7 974.2
03 21.05 ЮЗ 3
{7}
50 км 10/0
[Cs]
+9.2 -2.2 45 +7 +13 1006.9 973.5
06 21.05 ЮЗ 4
{6}
50 км 8/0
[Ac lent Ci fib]
+8.9 -1.2 49 +6 +8 1006.9 973.5
09 21.05 СЗ 1
{6}
50 км 8/1 1000 м
[Cu hum Ac lent Cs]
+6.2 -1.3 59 +6 +6 1007.5 973.7 +10.1
12 21.05 штиль 0
{2}
50 км 10/0
[Ac trans Cs]
-0.4 -1.9 90 -2 -2 1008.8 974.1
15 21.05 штиль 0
{1}
50 км 8/0
[Ac lent Ci fib]
-2.5 -3.1 96 -4 -4 1009.0 974.1
18 21.05 СВ 1
{2}
50 км ясно +2.0 -2.0 75 +1 +2 1008.8 974.5
21 21.05 Ю 1
{3}
50 км ясно +6.5 -1.2 58 +6 +13 1008.5 974.7 -2.8 0
00 22.05 СВ 1
{3}
50 км 1/1 600 м
[Cu hum]
+8.5 -1.4 50 +8 +19 опасность
простуды
1007.8 974.3
03 22.05 СВ 4
{6}
50 км 3/3 600 м
[Cu hum]
+9.1 -1.2 48 +7 +11 1007.5 974.1
06 22.05 СВ 4
{7}
50 км 1/1 600 м
[Cu hum]
+8.0 -0.7 54 +5 +8 1007.5 974.0
09 22.05 СВ 5
{8}
50 км ясно +4.5 -1.6 65 0 0 1008.8 974.8 +9.5
12 22.05 СВ 3
{8}
50 км ясно +1.3 -2.5 76 -3 -3 1010.0 975.6
15 22.05 СВ 4
{7}
50 км ясно -0.3 -3.4 80 -6 -6 1010.2 975.5
18 22.05 СВ 3
{6}
50 км ясно -0.2 -3.6 78 -5 -4 1010.7 976.0

 

Местоположение метеостанции Билибино (Чукотка, Россия): широта 68.05 долгота 166.40 высота над уровнем моря 280 м.

В архиве по умолчанию представлена погода в Билибино за последнюю неделю. Архивные данные за месяц целиком и за предыдущие месяцы, начиная с января 2011 года, Вы можете получить, выбрав интересующий диапазон дат из раскрывающегося списка и нажав кнопку "Ввод!".


*Определитесь, кто Вы:
робот инопланетянин человек

Внимание! Время в таблицах - всемирное. Для получения местного времени необходимо прибавить поправку, которая в Билибино равна 12 ч.

Смотрите также архив погоды в соседних городах и на ближайших метеорологических станциях:

Погода на Островном (Чукотка, Россия) (96 км)
Погода в Илирнее (Чукотка, Россия) (109 км)
Погода в Раучуе (Чукотка, Россия) (161 км)
Погода в Баимке (Чукотка, Россия) (194 км)
Погода в Чауне (Чукотка, Россия) (198 км)
Погода в Анюйске (Чукотка, Россия) (205 км)
Погода на Айон Острове (Чукотка, Россия) (217 км)
Погода в Константиновской (Чукотка, Россия) (220 км)
Погода в Черском (Якутия, Россия) (222 км)
Погода в Певеке (Чукотка, Россия) (238 км)

Пояснения к столбцам:

Ветер - указаны скорость ветра в м/с - средняя за 10 мин, порывы в срок и между сроками (в фигурных скобках) и направление, откуда дует ветер: С - северный, СВ - северо-восточный, В - восточный, ЮВ - юго-восточный, Ю - южный, ЮЗ - юго-западный, З - западный, СЗ - северо-западный.
Видимость - горизонтальная дальность видимости в метрах или километрах. При видимости от 1 до 10 км при отсутствии осадков обычно наблюдается дымка, при ухудшении видимости до 1 км и менее - туман. В сухую погоду видимость может ухудшаться дымом, пылью или мглою.
Явления - указаны атмосферные явления, наблюдавшиеся в срок или в последний час перед сроком; фигурными скобками обозначены явления, наблюдавшиеся между сроками (за 1-3 часа до срока); квадратными скобками обозначены град или гололедные отложения с указанием их диаметра в мм.
Облачность - указаны через наклонную черту общая и нижняя облачность в баллах и высота нижней границы облаков в метрах; квадратными скобками обозначены формы облаков: Ci - перистые, Cs - перисто-слоистые, Cc - перисто-кучевые, Ac - высококучевые, As - высокослоистые, Sc - слоисто-кучевые, Ns - слоисто-дождевые, Cu - кучевые, Cb - кучево-дождевые. Подробнее классификацию облаков см. в Атласе облаков (PDF).
T - Температура воздуха - температура, измеренная на высоте 2 м над землей.
Td - Температура точки росы - температура, при понижении до которой содержащийся в воздухе водяной пар достигнет насыщения.
f - Относительная влажность воздуха - влажноcть воздуха, измеренная на высоте 2 м над землей.
Te - Эффективная температура - температура, которую ощущает одетый по сезону человек в тени. Характеристика душности погоды. При расчете учитывается влияние влажности воздуха и скорости ветра на теплоощущения человека.
Tes - Эффективная температура на солнце - температура, которую ощущает человек, с поправкой на солнечный нагрев. Характеристика знойности погоды. Зависит от высоты солнца над горизонтом, облачности и скорости ветра. Ночью, в пасмурную погоду, а также при ветре 12 м/с и более поправка равна нулю.
P - Атмосферное давление - приведенное к уровню моря атмосферное давление.
Po - Атмосферное давление - измеренное на уровне метеостанции атмосферное давление.
Tmin - Минимальная температура - минимум температуры воздуха на высоте 2 м над землей.
Tmax - Максимальная температура - максимум температуры воздуха на высоте 2 м над землей.
R - Количество осадков - Количество выпавших осадков за период времени, мм. При наведении курсора мыши на число - период времени, за который выпало указанное количество осадков.
R24 - Количество осадков - Количество выпавших осадков за 24 часа, мм.
S - Снежный покров - Высота снежного покрова, см. При наведении курсора мыши на число - состояние снежного покрова и степень покрытия местности в баллах.